Date,TemperatureHighF,TemperatureAvgF,TemperatureLowF,DewpointHighF,DewpointAvgF,DewpointLowF,HumidityHigh,HumidityAvg,HumidityLow,PressureMaxIn,PressureMinIn,WindSpeedMaxMPH,WindSpeedAvgMPH,GustSpeedMaxMPH,PrecipitationSumIn
2013-1-1,76.5,67.3,63.9,58.5,52.4,43.7,79,61,32,29.94,29.88,0,0,0,0.00
2013-1-2,82.8,74.7,63.1,62.7,50.9,43.6,95,48,27,29.88,29.62,10,0,10,0.00
2013-2-21,79.2,71.9,62.8,44.6,39.7,33.6,51,32,20,29.91,29.85,1,0,2,0.00
2013-2-22,84.7,69.8,60.4,66.2,51.0,40.1,95,55,22,29.88,29.79,6,1,7,0.00
2013-2-23,79.9,69.9,61.9,60.4,50.0,42.0,79,52,27,29.94,29.82,8,2,9,0.00
2013-2-24,82.0,67.7,62.4,63.6,58.1,44.7,94,74,28,29.94,29.88,3,0,3,0.00
2013-2-25,87.6,74.1,65.7,69.9,59.5,45.3,98,68,24,29.88,29.74,3,0,3,0.00
2013-2-26,83.1,75.1,67.8,68.2,58.9,49.7,97,62,33,29.88,29.79,6,0,6,0.00
2013-2-27,84.9,74.1,66.6,70.9,58.0,48.5,98,62,29,29.85,29.62,4,0,5,0.00
2013-2-28,71.8,66.1,61.0,65.3,49.4,36.8,98,59,31,30.06,29.74,10,2,10,0.00
2013-3-1,77.9,67.7,59.5,59.3,47.7,38.8,83,52,26,30.03,29.97,2,0,5,0.00
2013-3-2,80.1,70.8,63.1,66.6,51.4,43.8,97,55,30,30.06,30.00,6,0,6,0.00
2013-3-3,82.2,70.8,61.5,64.5,52.6,38.6,89,56,22,30.06,30.00,0,0,0,0.00
2013-3-4,81.7,73.8,66.7,70.8,60.0,47.2,98,67,31,30.00,29.71,0,0,0,0.00
2013-3-5,84.2,75.0,69.3,72.7,60.5,38.7,98,66,23,29.88,29.68,10,3,11,0.00
2013-3-6,82.8,73.0,66.9,73.2,60.2,45.2,98,68,32,29.85,29.76,13,2,14,0.00
2013-3-7,78.6,69.1,63.3,55.2,50.9,43.2,70,54,32,29.82,29.65,10,1,10,0.00
2013-3-8,88.7,71.3,62.4,65.8,55.2,36.0,98,65,18,29.91,29.59,13,2,15,0.00
2013-3-9,74.7,65.8,59.7,61.5,45.6,33.4,98,53,23,30.18,29.91,10,0,11,0.00
2013-3-10,75.7,67.6,62.8,58.5,46.1,39.6,73,47,28,30.15,30.03,11,0,11,0.00
2013-3-11,77.0,70.8,64.9,65.3,57.8,50.1,96,66,41,30.03,29.88,9,0,11,0.00
2013-3-12,76.3,70.6,67.6,69.9,65.5,58.4,98,86,55,30.00,29.79,8,1,9,0.00
2013-3-13,77.2,72.2,70.0,75.3,70.1,64.9,98,93,69,30.06,29.97,8,0,8,0.00
2013-3-14,77.2,71.3,63.7,70.1,63.5,52.0,98,80,46,29.97,29.65,7,0,9,0.00
2013-3-15,82.0,70.6,62.6,64.4,55.7,45.3,98,64,28,29.76,29.56,14,3,15,0.00
2013-3-16,79.0,70.0,65.5,66.6,58.0,48.4,95,67,40,29.91,29.76,6,0,10,0.00
2013-3-17,81.5,70.9,63.1,66.7,55.1,45.5,95,61,30,29.88,29.82,6,0,7,0.00
2013-3-18,76.5,68.4,62.2,67.5,55.3,42.3,96,65,33,29.88,29.79,8,1,9,0.00
2013-3-19,77.5,67.8,61.7,57.8,47.6,40.5,82,51,28,30.00,29.85,11,1,11,0.00
2013-3-20,81.1,68.7,58.8,56.9,47.6,35.9,88,52,20,29.94,29.79,0,0,0,0.00
2013-3-21,76.8,69.2,63.7,67.5,57.8,39.2,98,70,30,29.88,29.74,8,1,10,0.00
2013-3-22,84.2,71.1,64.0,75.3,60.8,44.8,98,76,26,29.82,29.68,6,0,6,0.00
2013-3-23,70.0,64.7,60.6,63.5,46.7,36.3,98,55,33,29.97,29.74,11,0,11,0.00
2013-3-24,74.7,64.2,59.2,55.3,43.6,37.5,68,48,30,30.06,29.88,0,0,4,0.00
2013-3-25,75.7,67.1,58.6,66.4,53.5,43.1,97,65,34,30.06,29.97,10,0,11,0.00
2013-3-26,77.2,70.3,65.8,69.6,62.2,41.4,97,78,29,30.00,29.68,10,0,11,0.00
2013-3-27,93.2,74.4,64.2,66.4,49.7,39.4,94,48,16,29.82,29.62,7,0,8,0.00
2013-3-28,80.8,69.5,62.2,63.9,55.4,45.2,93,65,31,30.03,29.76,1,0,3,0.00
2013-3-29,68.5,63.8,60.8,63.3,55.8,43.4,98,78,44,30.09,30.00,5,0,6,0.00
2013-3-30,64.9,63.3,61.3,64.4,62.2,58.1,98,96,82,30.12,30.03,10,0,11,0.00
2013-3-31,135.9,77.8,63.3,99.9,72.5,61.6,98,95,85,30.06,29.71,10,0,11,0.00
2013-4-1,111.6,76.5,66.4,99.9,62.1,37.9,97,65,30,29.74,29.65,8,0,12,0.00
2013-4-2,73.6,68.0,62.2,70.6,55.1,38.6,95,67,32,30.12,29.68,14,1,15,0.00
2013-4-3,72.7,67.3,61.9,64.8,48.9,32.3,94,59,25,30.15,30.09,0,0,0,0.00
2013-4-4,73.2,65.7,59.4,44.8,35.0,29.6,58,34,22,30.06,29.97,0,0,0,0.00
2013-4-5,88.2,69.6,59.4,66.2,31.8,18.8,95,27,13,29.97,29.88,0,0,0,0.00
2013-4-6,76.8,67.1,58.1,69.6,46.8,16.2,98,53,15,29.91,29.82,0,0,0,0.00
2013-4-7,73.0,65.4,59.4,55.8,43.2,35.6,75,46,28,29.82,29.65,0,0,0,0.00
2013-4-8,75.2,63.8,58.5,58.8,39.0,26.3,84,43,21,29.79,29.59,13,1,13,0.00
2013-4-9,67.1,57.8,54.0,54.5,38.6,26.5,93,53,23,30.18,29.76,11,0,12,0.00
2013-4-10,68.0,58.4,52.2,53.3,42.4,28.8,92,60,25,30.27,30.15,0,0,0,0.00
2013-4-11,68.5,60.2,53.2,53.5,41.9,29.7,81,55,24,30.27,30.09,0,0,0,0.00
2013-4-12,69.4,62.9,55.4,65.8,46.5,31.4,96,60,25,30.09,29.94,1,0,3,0.00
2013-4-13,76.3,67.9,62.2,71.1,57.6,35.6,98,77,24,29.94,29.85,1,0,1,0.00
2013-4-14,88.7,69.5,61.7,65.3,45.1,26.7,98,52,15,29.88,29.79,1,0,3,0.00
2013-4-15,76.8,65.7,56.3,66.9,46.3,26.9,98,56,24,29.82,29.62,0,0,0,0.00
2013-4-16,84.0,71.0,64.0,72.1,47.8,21.9,98,56,12,29.62,29.44,10,0,12,0.00
2013-4-17,76.8,68.9,57.0,69.0,46.8,24.4,98,53,15,29.65,29.41,12,1,14,0.00
2013-4-18,67.3,57.8,52.9,59.5,43.3,31.7,98,62,27,30.06,29.65,12,1,15,0.00
2013-4-19,69.1,60.2,52.0,58.1,42.7,35.4,92,56,30,30.12,30.03,1,0,1,0.00
2013-4-20,68.5,63.2,56.8,68.0,52.8,37.3,98,73,34,30.12,30.03,4,0,4,0.00
2013-4-21,73.0,66.8,61.0,71.7,55.2,35.7,98,72,26,30.03,29.94,0,0,0,0.00
2013-4-22,72.5,63.5,58.5,66.0,54.7,42.2,98,76,35,29.97,29.91,1,0,4,0.00
2013-4-23,74.8,65.6,58.8,68.6,49.6,31.6,95,62,21,29.97,29.91,0,0,3,0.00
2013-4-24,88.5,72.3,62.6,56.5,40.2,30.1,79,35,15,30.03,29.91,0,0,0,0.00
2013-4-25,98.1,72.4,63.5,41.0,34.9,25.6,41,27,11,30.00,29.94,0,0,1,0.00
2013-4-26,98.6,76.2,63.1,68.0,31.4,21.6,98,25,10,29.94,29.85,3,0,8,0.00
2013-4-27,76.3,67.2,62.8,69.6,57.9,42.4,98,76,32,29.94,29.76,0,0,0,0.00
2013-4-28,78.6,67.4,62.6,65.6,49.8,34.4,98,58,21,30.03,29.76,8,0,9,0.00
2013-4-29,74.5,64.0,60.8,64.4,50.9,38.6,97,65,31,30.12,30.03,0,0,0,0.00
2013-4-30,87.6,69.9,57.6,59.0,36.8,22.5,89,38,13,30.06,29.91,1,0,2,0.00
2013-5-1,98.4,73.1,60.1,59.7,37.0,22.5,81,34,11,29.91,29.79,8,0,10,0.00
2013-5-2,76.8,66.4,60.3,64.9,50.2,36.0,98,62,24,29.94,29.85,3,0,7,0.00
2013-5-3,65.5,61.5,58.5,58.5,52.3,41.3,97,73,47,29.97,29.88,11,1,11,0.00
2013-5-4,72.0,62.7,55.6,43.2,33.3,27.3,62,35,21,30.33,29.76,0,0,1,0.00
2013-5-5,74.3,60.7,51.8,50.8,38.6,27.9,73,48,21,30.27,30.15,0,0,0,0.00
2013-5-6,83.5,66.0,54.1,45.9,31.8,17.4,65,33,14,30.15,29.91,0,0,0,0.00
2013-5-7,87.1,70.2,61.9,32.2,22.4,16.1,32,17,12,29.91,29.79,5,0,7,0.00
2013-5-8,72.7,65.5,61.9,65.6,35.8,17.6,98,42,15,29.82,29.71,10,0,12,0.00
2013-5-9,69.8,61.0,52.0,62.4,41.8,24.9,98,57,23,30.06,29.82,10,0,11,0.00
2013-5-10,73.2,58.7,49.8,42.9,32.2,22.8,56,39,19,30.12,30.03,0,0,0,0.00
2013-5-11,74.3,64.3,55.0,52.3,33.6,23.5,80,36,16,30.09,29.53,1,0,1,0.00
2013-5-12,82.9,63.9,54.5,30.9,24.8,21.1,38,23,14,30.03,29.97,0,0,1,0.00
2013-5-15,69.3,64.8,61.9,64.2,57.2,44.4,97,80,42,29.88,29.85,5,0,5,0.00
2013-5-16,69.8,62.6,58.1,67.1,53.8,41.7,97,76,38,30.09,29.82,7,0,7,0.00
2013-5-17,71.8,61.7,53.8,59.9,43.5,29.3,98,58,22,30.30,30.06,6,0,6,0.00
2013-5-18,67.3,61.3,52.9,63.7,48.6,36.6,98,68,33,30.27,30.03,0,0,1,0.00
2013-5-19,80.8,66.6,61.7,63.1,50.3,27.0,98,69,17,30.03,29.82,0,0,0,0.00
2013-5-20,75.4,67.9,60.6,69.5,49.5,31.5,97,57,24,29.91,29.82,6,0,8,0.00
2013-5-21,76.3,70.0,65.7,73.1,64.4,47.9,97,85,42,29.91,29.85,0,0,2,0.00
2013-5-22,76.1,69.5,65.1,74.6,63.0,42.2,98,83,34,29.91,29.79,10,0,10,0.00
2013-5-23,75.4,65.5,59.5,65.4,51.4,33.5,95,66,23,30.03,29.82,7,0,10,0.00
2013-5-24,70.3,63.4,58.3,65.5,55.2,39.5,98,78,35,29.97,29.85,0,0,0,0.00
2013-5-25,76.6,63.6,56.7,65.5,50.9,37.8,98,67,26,29.85,29.76,8,0,8,0.00
2013-5-26,63.9,61.2,58.1,52.3,44.2,38.3,76,54,39,29.79,29.68,6,0,7,0.00
2013-5-27,72.5,62.7,56.8,64.0,43.8,26.2,98,57,19,29.85,29.65,12,1,12,0.00
2013-5-28,75.2,61.9,54.5,57.7,34.3,24.4,89,39,18,29.91,29.79,10,0,10,0.00
2013-5-29,74.7,62.7,54.5,47.0,38.5,27.8,70,45,18,29.91,29.71,0,0,1,0.00
2013-5-30,73.6,63.6,56.7,43.9,37.1,27.3,51,39,18,29.88,29.74,8,0,11,0.00
2013-5-31,70.7,61.1,54.0,58.4,43.3,32.6,89,55,25,29.88,29.62,0,0,0,0.00
2013-6-1,68.7,57.9,53.1,49.0,31.2,19.7,81,38,17,29.62,29.50,10,0,17,0.00
2013-6-2,59.4,52.4,46.8,36.0,25.6,19.6,60,36,24,29.68,29.41,13,0,13,0.00
2013-6-3,64.2,53.9,44.4,29.5,23.2,18.5,41,31,21,29.94,29.68,13,1,13,0.00
2013-6-4,66.2,57.5,51.1,32.3,25.9,22.6,38,30,22,30.00,29.88,12,2,14,0.00
2013-6-5,67.1,58.7,52.9,53.9,40.4,27.8,94,54,25,30.24,30.09,10,1,10,0.00
2013-6-6,69.8,58.3,50.2,57.2,41.4,27.9,97,59,22,30.18,29.97,3,0,3,0.00
2013-6-7,68.0,57.9,52.7,56.2,46.3,34.8,97,69,31,29.97,29.71,7,0,9,0.00
2013-6-8,65.5,57.6,51.8,60.2,42.4,22.6,98,62,26,30.00,29.59,13,4,14,0.00
2013-6-9,65.7,54.7,48.6,47.8,29.0,23.4,84,39,23,30.30,30.00,0,0,0,0.00
2013-6-10,68.2,55.4,46.6,40.7,27.0,19.3,59,36,17,30.27,30.00,0,0,0,0.00
2013-6-11,78.6,66.4,52.9,27.1,19.9,14.8,32,17,13,30.00,29.85,0,0,0,0.00
2013-6-12,82.8,65.4,56.3,57.6,31.1,16.2,94,35,13,29.85,29.71,0,0,0,0.00
2013-6-13,67.6,59.4,55.0,55.1,34.4,24.2,94,41,26,29.85,29.71,0,0,0,0.00
2013-6-14,64.9,57.7,53.1,57.2,36.2,24.0,93,48,23,30.03,29.76,11,2,11,0.00
2013-6-15,63.0,55.5,51.4,54.6,39.7,31.4,87,57,33,30.27,30.03,8,8,8,0.00
2013-6-16,70.0,57.2,50.0,53.8,43.6,28.1,93,66,22,30.30,30.21,8,8,8,0.00
2013-6-17,66.9,60.4,52.7,60.3,51.7,39.3,98,77,37,30.27,29.97,8,2,8,0.00
2013-6-18,82.4,70.1,56.7,55.4,25.3,16.7,90,21,13,29.97,29.65,0,0,0,0.00
2013-6-19,65.8,59.1,54.9,44.4,36.7,24.6,60,44,27,29.97,29.74,0,0,0,0.00
2013-6-20,69.1,58.1,52.3,53.4,38.4,24.3,92,52,24,30.03,29.94,0,0,0,0.00
2013-6-21,82.0,62.5,54.0,58.2,41.4,23.1,97,58,14,30.00,29.68,0,0,0,0.00
2013-6-22,65.5,56.9,53.1,40.9,31.5,26.8,55,39,25,30.18,30.00,0,0,0,0.00
2013-6-23,75.4,60.2,54.1,59.2,44.8,21.6,98,66,15,30.00,29.76,0,0,0,0.00
2013-6-24,84.0,68.2,58.1,60.3,34.3,17.5,98,38,12,29.76,29.56,0,0,0,0.00
2013-6-25,68.4,61.0,54.1,46.3,28.8,22.9,62,30,23,29.79,29.56,0,0,0,0.00
2013-6-26,67.6,57.5,51.6,51.2,24.3,19.1,92,29,17,29.97,29.79,0,0,0,0.00
2013-6-27,63.7,57.2,50.9,63.1,45.2,32.7,98,68,44,30.18,29.94,0,0,0,0.00
2013-6-28,67.5,55.2,47.3,46.5,36.5,28.0,84,52,26,30.15,29.50,0,0,0,0.00
2013-6-29,63.7,56.3,50.2,58.3,44.6,34.1,97,68,35,29.94,29.85,0,0,0,0.00
2013-6-30,66.9,57.2,52.3,56.4,42.8,27.7,96,63,24,30.00,29.88,0,0,0,0.00
2013-7-1,63.0,57.6,53.4,57.9,50.4,38.8,96,78,56,30.03,29.97,0,0,0,0.00
2013-7-2,65.7,58.7,55.4,63.7,55.2,43.6,98,89,52,30.00,29.91,0,0,0,0.00
2013-7-3,59.0,58.4,57.0,58.2,57.5,55.3,97,97,94,30.00,29.97,0,0,0,0.00
2013-7-4,63.0,59.1,57.4,62.1,48.5,38.7,98,69,45,30.18,29.94,0,0,0,0.00
2013-7-5,72.0,61.0,57.2,54.8,43.7,32.0,88,56,25,29.94,29.74,0,0,0,0.00
2013-7-6,74.5,62.7,54.5,61.9,37.4,31.1,97,42,22,29.88,29.76,0,0,0,0.00
2013-7-7,70.9,61.4,55.2,52.1,33.3,20.3,81,39,22,30.06,29.88,0,0,0,0.00
2013-7-8,68.5,59.9,53.1,55.8,41.3,33.1,92,53,28,30.15,29.97,0,0,0,0.00
2013-7-9,67.8,60.3,57.0,61.8,54.2,43.3,97,82,45,30.24,30.09,0,0,0,0.00
2013-7-10,67.5,61.0,57.2,63.6,54.6,37.4,97,82,36,30.24,30.03,0,0,0,0.00
2013-7-11,84.6,67.4,56.8,53.8,30.8,26.1,83,27,14,30.03,29.88,0,0,0,0.00
2013-7-12,85.8,75.0,66.0,32.7,26.4,21.9,23,17,13,29.88,29.79,0,0,0,0.00
2013-7-13,73.6,63.3,55.4,61.5,41.7,23.4,97,52,16,30.09,29.76,0,0,0,0.00
2013-7-14,59.7,56.9,53.2,58.9,51.6,40.4,97,83,50,30.12,29.94,0,0,0,0.00
2013-7-15,67.5,60.6,56.5,61.1,52.0,36.3,97,77,33,29.94,29.74,0,0,0,0.00
2013-7-16,69.8,59.6,54.1,55.0,38.1,31.4,87,46,25,30.06,29.88,0,0,0,0.00
2013-7-17,65.3,60.5,55.6,54.9,48.1,37.5,88,65,38,30.06,29.88,0,0,0,0.00
2013-7-18,61.7,59.3,56.3,50.7,39.4,22.8,72,52,25,29.88,29.74,0,0,0,0.00
2013-7-19,67.5,60.5,56.7,43.4,34.2,23.1,52,39,27,29.97,29.74,0,0,0,0.00
2013-7-20,64.6,61.6,54.0,43.4,35.9,31.6,62,40,29,30.21,29.94,0,0,0,0.00
2013-7-21,71.8,58.9,54.3,42.8,37.7,28.5,65,48,22,30.24,30.03,0,0,0,0.00
2013-7-22,63.7,60.3,51.4,41.2,32.7,28.2,61,38,26,30.03,29.65,0,0,0,0.00
2013-7-23,63.7,63.7,63.7,28.2,28.2,28.2,26,26,26,29.94,29.59,0,0,0,0.00
2013-7-24,63.7,63.7,63.7,28.2,28.2,28.2,26,26,26,30.15,29.94,0,0,0,0.00
2013-7-26,0.0,0.0,0.0,0.0,0.0,0.0,0,0,100,29.79,29.62,0,0,0,0.00
2013-7-27,0.0,0.0,0.0,0.0,0.0,0.0,0,0,100,29.85,29.62,0,0,0,0.00
2013-7-28,0.0,0.0,0.0,0.0,0.0,0.0,0,0,100,30.18,29.85,0,0,0,0.00
2013-7-29,0.0,0.0,0.0,0.0,0.0,0.0,0,0,100,30.36,30.18,0,0,0,0.00
2013-7-30,0.0,0.0,0.0,0.0,0.0,0.0,0,0,100,30.36,30.24,0,0,0,0.00
2013-7-31,0.0,0.0,0.0,0.0,0.0,0.0,0,0,100,30.24,30.12,0,0,0,0.00
2013-8-1,0.0,0.0,0.0,0.0,0.0,0.0,0,0,100,30.12,30.06,0,0,0,0.00
2013-8-2,0.0,0.0,0.0,0.0,0.0,0.0,0,0,100,30.18,30.00,0,0,0,0.00
2013-8-3,0.0,0.0,0.0,0.0,0.0,0.0,0,0,100,30.18,30.03,0,0,0,0.00
2013-8-4,0.0,0.0,0.0,0.0,0.0,0.0,0,0,100,30.06,29.97,0,0,0,0.00
2013-8-5,0.0,0.0,0.0,0.0,0.0,0.0,0,0,100,30.06,29.91,0,0,0,0.00
2013-8-6,0.0,0.0,0.0,0.0,0.0,0.0,0,0,100,29.91,29.79,0,0,0,0.00
2013-8-7,0.0,0.0,0.0,0.0,0.0,0.0,0,0,100,29.88,29.68,0,0,0,0.00
2013-8-8,0.0,0.0,0.0,0.0,0.0,0.0,0,0,100,30.12,29.88,0,0,0,0.00
2013-8-9,0.0,0.0,0.0,0.0,0.0,0.0,0,0,100,30.18,30.09,0,0,0,0.00
2013-8-10,0.0,0.0,0.0,0.0,0.0,0.0,0,0,100,30.12,29.76,0,0,0,0.00
2013-8-11,0.0,0.0,0.0,0.0,0.0,0.0,0,0,100,29.82,29.65,0,0,0,0.00
2013-8-12,0.0,0.0,0.0,0.0,0.0,0.0,0,0,100,29.82,29.76,0,0,0,0.00
2013-8-13,0.0,0.0,0.0,0.0,0.0,0.0,0,0,100,29.68,29.56,0,0,0,0.00
2013-8-14,0.0,0.0,0.0,0.0,0.0,0.0,0,0,100,29.85,29.65,0,0,0,0.00
2013-8-15,0.0,0.0,0.0,0.0,0.0,0.0,0,0,100,29.82,29.65,0,0,0,0.00
2013-8-16,0.0,0.0,0.0,0.0,0.0,0.0,0,0,100,29.82,29.50,0,0,0,0.00
2013-8-17,0.0,0.0,0.0,0.0,0.0,0.0,0,0,100,29.88,29.50,0,0,0,0.00
2013-8-18,0.0,0.0,0.0,0.0,0.0,0.0,0,0,100,30.18,29.88,0,0,0,0.00
2013-8-19,0.0,0.0,0.0,0.0,0.0,0.0,0,0,100,30.15,29.94,0,0,0,0.00
2013-8-20,0.0,0.0,0.0,0.0,0.0,0.0,0,0,100,29.94,29.74,0,0,0,0.00
2013-8-21,0.0,0.0,0.0,0.0,0.0,0.0,0,0,100,30.00,29.62,0,0,0,0.00
2013-8-22,0.0,0.0,0.0,0.0,0.0,0.0,0,0,100,30.09,30.00,0,0,0,0.00
2013-8-23,0.0,0.0,0.0,0.0,0.0,0.0,0,0,100,30.06,29.91,0,0,0,0.00
2013-8-24,0.0,0.0,0.0,0.0,0.0,0.0,0,0,100,30.18,29.94,0,0,0,0.00
2013-8-25,0.0,0.0,0.0,0.0,0.0,0.0,0,0,100,30.15,29.76,0,0,0,0.00
2013-8-26,0.0,0.0,0.0,0.0,0.0,0.0,0,0,100,29.79,29.62,0,0,0,0.00
2013-8-27,0.0,0.0,0.0,0.0,0.0,0.0,0,0,100,29.76,29.14,5,0,6,0.00
2013-8-28,0.0,0.0,0.0,0.0,0.0,0.0,0,0,100,29.76,29.56,10,1,10,0.00
2013-8-29,0.0,0.0,0.0,0.0,0.0,0.0,0,0,100,29.74,29.62,6,1,6,0.00
2013-8-30,0.0,0.0,0.0,0.0,0.0,0.0,0,0,100,29.74,29.65,10,4,12,0.00
2013-8-31,0.0,0.0,0.0,0.0,0.0,0.0,0,0,100,29.91,29.65,16,7,16,0.00
2013-9-1,0.0,0.0,0.0,0.0,0.0,0.0,0,0,100,30.03,29.91,11,3,14,0.00
2013-9-2,0.0,0.0,0.0,0.0,0.0,0.0,0,0,100,29.97,29.74,6,0,6,0.00
2013-9-3,0.0,0.0,0.0,0.0,0.0,0.0,0,0,100,30.15,29.85,8,3,11,0.00
2013-9-4,0.0,0.0,0.0,0.0,0.0,0.0,0,0,100,30.21,30.09,7,1,8,0.00
2013-9-5,0.0,0.0,0.0,0.0,0.0,0.0,0,0,100,30.18,30.03,7,2,8,0.00
2013-9-9,0.0,0.0,0.0,0.0,0.0,0.0,0,0,100,30.06,30.00,6,1,7,0.00
2013-9-10,0.0,0.0,0.0,0.0,0.0,0.0,0,0,100,30.06,29.94,7,2,8,0.00
2013-9-11,0.0,0.0,0.0,0.0,0.0,0.0,0,0,100,30.09,30.00,6,2,8,0.00
2013-9-12,0.0,0.0,0.0,0.0,0.0,0.0,0,0,100,30.00,29.82,0,0,0,0.00
2013-9-13,0.0,0.0,0.0,0.0,0.0,0.0,0,0,100,29.82,29.68,0,0,0,0.00
2013-9-14,0.0,0.0,0.0,0.0,0.0,0.0,0,0,100,29.85,29.62,11,2,12,0.00
2013-9-15,0.0,0.0,0.0,0.0,0.0,0.0,0,0,100,29.91,29.56,10,0,10,0.00
2013-9-16,0.0,0.0,0.0,0.0,0.0,0.0,0,0,100,30.00,29.88,0,0,0,0.00
2013-9-17,0.0,0.0,0.0,0.0,0.0,0.0,0,0,100,29.94,29.82,0,0,0,0.00
2013-9-18,0.0,0.0,0.0,0.0,0.0,0.0,0,0,100,29.94,29.71,0,0,0,0.00
2013-9-19,0.0,0.0,0.0,0.0,0.0,0.0,0,0,100,29.71,29.41,0,0,0,0.00
2013-9-20,0.0,0.0,0.0,0.0,0.0,0.0,0,0,100,29.94,29.50,0,0,0,0.00
2013-9-21,0.0,0.0,0.0,0.0,0.0,0.0,0,0,100,30.15,29.94,0,0,0,0.00
2013-9-22,0.0,0.0,0.0,0.0,0.0,0.0,0,0,100,30.03,29.94,0,0,0,0.00
2013-9-23,0.0,0.0,0.0,0.0,0.0,0.0,0,0,100,29.94,29.74,0,0,0,0.00
2013-9-24,0.0,0.0,0.0,0.0,0.0,0.0,0,0,100,29.94,29.88,0,0,0,0.00
2013-9-25,0.0,0.0,0.0,0.0,0.0,0.0,0,0,100,29.94,29.82,0,0,0,0.00
2013-9-26,0.0,0.0,0.0,0.0,0.0,0.0,0,0,100,29.91,29.68,0,0,0,0.00
2013-9-27,0.0,0.0,0.0,0.0,0.0,0.0,0,0,100,29.85,29.65,13,0,15,0.00
2013-9-28,0.0,0.0,0.0,0.0,0.0,0.0,0,0,100,30.18,29.82,0,0,0,0.00
2013-9-29,0.0,0.0,0.0,0.0,0.0,0.0,0,0,100,30.30,30.15,0,0,0,0.00
2013-9-30,0.0,0.0,0.0,0.0,0.0,0.0,0,0,100,30.27,29.88,0,0,0,0.00
2013-10-1,0.0,0.0,0.0,0.0,0.0,0.0,0,0,100,29.88,29.82,0,0,0,0.00
2013-10-4,0.0,0.0,0.0,0.0,0.0,0.0,0,0,100,30.00,29.94,0,0,0,0.00
2013-10-5,0.0,0.0,0.0,0.0,0.0,0.0,0,0,100,30.09,29.88,0,0,0,0.00
2013-10-6,0.0,0.0,0.0,0.0,0.0,0.0,0,0,100,30.21,30.09,0,0,0,0.00
2013-10-7,0.0,0.0,0.0,0.0,0.0,0.0,0,0,100,30.18,30.06,0,0,0,0.00
2013-10-8,0.0,0.0,0.0,0.0,0.0,0.0,0,0,100,30.06,29.85,0,0,0,0.00
2013-10-9,0.0,0.0,0.0,0.0,0.0,0.0,0,0,100,29.94,29.85,0,0,0,0.00
2013-10-10,0.0,0.0,0.0,0.0,0.0,0.0,0,0,100,29.88,29.79,0,0,0,0.00
2013-10-11,0.0,0.0,0.0,0.0,0.0,0.0,0,0,100,29.82,29.74,9,1,9,0.00
2013-10-12,0.0,0.0,0.0,0.0,0.0,0.0,0,0,100,30.03,29.71,13,4,14,0.00
2013-10-13,0.0,0.0,0.0,0.0,0.0,0.0,0,0,100,30.09,30.00,8,3,10,0.00
2013-10-14,0.0,0.0,0.0,0.0,0.0,0.0,0,0,100,30.12,30.00,8,2,8,0.00
2013-10-15,0.0,0.0,0.0,0.0,0.0,0.0,0,0,100,29.97,29.94,6,2,6,0.00
2013-10-16,0.0,0.0,0.0,0.0,0.0,0.0,0,0,100,30.15,29.97,8,2,10,0.00
2013-10-17,0.0,0.0,0.0,0.0,0.0,0.0,0,0,100,30.12,30.06,0,0,0,0.00
2013-10-18,0.0,0.0,0.0,0.0,0.0,0.0,0,0,100,30.12,30.06,9,1,10,0.00
2013-10-19,0.0,0.0,0.0,0.0,0.0,0.0,0,0,100,30.09,29.88,10,3,10,0.00
2013-10-20,0.0,0.0,0.0,0.0,0.0,0.0,0,0,100,29.88,29.82,7,1,9,0.00
2013-10-21,0.0,0.0,0.0,0.0,0.0,0.0,0,0,100,30.06,29.85,10,2,10,0.00
2013-10-22,0.0,0.0,0.0,0.0,0.0,0.0,0,0,100,30.03,29.94,6,1,6,0.00
2013-10-25,0.0,0.0,0.0,0.0,0.0,0.0,0,0,100,29.85,29.74,6,0,6,0.00
2013-10-26,0.0,0.0,0.0,0.0,0.0,0.0,0,0,100,29.97,29.79,9,2,10,0.00
2013-10-27,0.0,0.0,0.0,0.0,0.0,0.0,0,0,100,30.00,29.88,9,3,9,0.00
2013-10-28,0.0,0.0,0.0,0.0,0.0,0.0,0,0,100,29.88,29.82,6,0,6,0.00
2013-10-29,0.0,0.0,0.0,0.0,0.0,0.0,0,0,100,29.85,29.68,0,0,0,0.00
2013-10-30,0.0,0.0,0.0,0.0,0.0,0.0,0,0,100,29.68,29.59,0,0,0,0.00
2013-10-31,0.0,0.0,0.0,0.0,0.0,0.0,0,0,100,29.68,29.56,13,4,14,0.00
2013-11-1,0.0,0.0,0.0,0.0,0.0,0.0,0,0,100,30.03,29.65,8,2,8,0.00
2013-11-2,0.0,0.0,0.0,0.0,0.0,0.0,0,0,100,30.09,30.00,6,1,6,0.00
2013-11-3,0.0,0.0,0.0,0.0,0.0,0.0,0,0,100,30.00,29.88,6,1,6,0.00
2013-11-4,0.0,0.0,0.0,0.0,0.0,0.0,0,0,100,29.91,29.71,3,0,5,0.00
2013-11-5,0.0,0.0,0.0,0.0,0.0,0.0,0,0,100,29.82,29.74,6,1,7,0.00
2013-11-6,0.0,0.0,0.0,0.0,0.0,0.0,0,0,100,29.76,29.59,10,2,10,0.00
2013-11-7,0.0,0.0,0.0,0.0,0.0,0.0,0,0,100,29.91,29.71,14,4,14,0.00
2013-11-8,0.0,0.0,0.0,0.0,0.0,0.0,0,0,100,29.94,29.85,10,2,10,0.00
2013-11-9,0.0,0.0,0.0,0.0,0.0,0.0,0,0,100,30.03,29.88,0,0,0,0.00
2013-11-10,0.0,0.0,0.0,0.0,0.0,0.0,0,0,100,30.03,30.00,5,0,5,0.00
2013-11-11,0.0,0.0,0.0,0.0,0.0,0.0,0,0,100,30.03,29.76,8,2,8,0.00
2013-11-12,0.0,0.0,0.0,0.0,0.0,0.0,0,0,100,29.76,29.68,6,2,6,0.00
2013-11-13,0.0,0.0,0.0,0.0,0.0,0.0,0,0,100,29.76,29.65,8,1,8,0.00
2013-11-14,0.0,0.0,0.0,0.0,0.0,0.0,0,0,100,29.85,29.68,9,1,9,0.00
2013-11-15,0.0,0.0,0.0,0.0,0.0,0.0,0,0,100,29.88,29.76,11,3,12,0.00
2013-11-16,0.0,0.0,0.0,0.0,0.0,0.0,0,0,100,29.79,29.65,10,3,11,0.00
2013-11-17,0.0,0.0,0.0,0.0,0.0,0.0,0,0,100,29.79,29.68,9,3,11,0.00
2013-11-18,0.0,0.0,0.0,0.0,0.0,0.0,0,0,100,29.91,29.91,4,2,4,0.00
2013-11-19,0.0,0.0,0.0,0.0,0.0,0.0,0,0,100,29.53,29.41,4,1,5,0.00
2013-11-20,0.0,0.0,0.0,0.0,0.0,0.0,0,0,100,29.97,29.50,10,3,10,0.00
2013-11-21,0.0,0.0,0.0,0.0,0.0,0.0,0,0,100,30.03,29.88,6,2,6,0.00
2013-11-22,0.0,0.0,0.0,0.0,0.0,0.0,0,0,100,29.97,29.74,5,0,5,0.00
2013-11-23,0.0,0.0,0.0,0.0,0.0,0.0,0,0,100,30.09,29.94,6,0,6,0.00
2013-11-24,0.0,0.0,0.0,0.0,0.0,0.0,0,0,100,30.06,29.68,6,2,7,0.00
2013-11-25,0.0,0.0,0.0,0.0,0.0,0.0,0,0,100,29.76,29.56,7,1,7,0.00
2013-11-26,0.0,0.0,0.0,0.0,0.0,0.0,0,0,100,30.03,29.76,6,1,6,0.00
2013-11-27,0.0,0.0,0.0,0.0,0.0,0.0,0,0,100,30.15,30.00,4,0,4,0.00
2013-11-28,0.0,0.0,0.0,0.0,0.0,0.0,0,0,100,30.15,29.94,8,2,8,0.00
2013-11-29,0.0,0.0,0.0,0.0,0.0,0.0,0,0,100,29.94,29.71,4,1,5,0.00
2013-11-30,0.0,0.0,0.0,0.0,0.0,0.0,0,0,100,30.03,29.82,6,1,6,0.00
2013-12-1,0.0,0.0,0.0,0.0,0.0,0.0,0,0,100,30.03,29.97,8,3,8,0.00
2013-12-2,0.0,0.0,0.0,0.0,0.0,0.0,0,0,100,29.97,29.82,7,2,8,0.00
2013-12-3,0.0,0.0,0.0,0.0,0.0,0.0,0,0,100,29.91,29.76,6,2,8,0.00
2013-12-4,0.0,0.0,0.0,0.0,0.0,0.0,0,0,100,30.12,29.88,9,3,9,0.00
2013-12-5,0.0,0.0,0.0,0.0,0.0,0.0,0,0,100,30.12,30.06,5,1,6,0.00
2013-12-6,0.0,0.0,0.0,0.0,0.0,0.0,0,0,100,30.12,30.06,6,1,6,0.00
2013-12-7,0.0,0.0,0.0,0.0,0.0,0.0,0,0,100,30.09,29.88,10,3,10,0.00
2013-12-8,0.0,0.0,0.0,0.0,0.0,0.0,0,0,100,29.94,29.88,8,3,8,0.00
2013-12-9,0.0,0.0,0.0,0.0,0.0,0.0,0,0,100,29.91,29.85,6,2,6,0.00
2013-12-10,0.0,0.0,0.0,0.0,0.0,0.0,0,0,100,29.91,29.85,6,1,6,0.00
2013-12-11,0.0,0.0,0.0,0.0,0.0,0.0,0,0,100,29.91,29.85,7,2,7,0.00
2013-12-12,0.0,0.0,0.0,0.0,0.0,0.0,0,0,100,29.88,29.76,8,3,9,0.00
2013-12-13,0.0,0.0,0.0,0.0,0.0,0.0,0,0,100,29.82,29.68,6,1,6,0.00
2013-12-14,0.0,0.0,0.0,0.0,0.0,0.0,0,0,100,29.82,29.74,5,0,5,0.00
2013-12-15,0.0,0.0,0.0,0.0,0.0,0.0,0,0,100,29.88,29.74,7,1,7,0.00
2013-12-16,0.0,0.0,0.0,0.0,0.0,0.0,0,0,100,29.97,29.88,4,0,4,0.00
2013-12-17,0.0,0.0,0.0,0.0,0.0,0.0,0,0,100,30.03,29.91,3,0,4,0.00
2013-12-18,0.0,0.0,0.0,0.0,0.0,0.0,0,0,100,30.00,29.88,5,2,6,0.00
2013-12-19,0.0,0.0,0.0,0.0,0.0,0.0,0,0,100,29.88,29.79,4,0,4,0.00
2013-12-20,0.0,0.0,0.0,0.0,0.0,0.0,0,0,100,29.85,29.68,0,0,0,0.00
2013-12-21,0.0,0.0,0.0,0.0,0.0,0.0,0,0,100,30.00,29.85,0,0,0,0.00
2013-12-22,0.0,0.0,0.0,0.0,0.0,0.0,0,0,100,29.97,29.88,0,0,0,0.00
2013-12-23,0.0,0.0,0.0,0.0,0.0,0.0,0,0,100,29.94,29.88,0,0,0,0.00
2013-12-24,0.0,0.0,0.0,0.0,0.0,0.0,0,0,100,29.88,29.85,0,0,0,0.00
2013-12-26,0.0,0.0,0.0,0.0,0.0,0.0,0,0,100,29.94,29.38,3,0,3,0.00
2013-12-27,0.0,0.0,0.0,0.0,0.0,0.0,0,0,100,29.91,29.62,0,0,0,0.00
2013-12-28,0.0,0.0,0.0,0.0,0.0,0.0,0,0,100,30.00,29.71,2,0,3,0.00
2013-12-29,0.0,0.0,0.0,0.0,0.0,0.0,0,0,100,30.00,29.82,0,0,0,0.00
2013-12-30,0.0,0.0,0.0,0.0,0.0,0.0,0,0,100,29.94,29.79,0,0,0,0.00
2013-12-31,0.0,0.0,0.0,0.0,0.0,0.0,0,0,100,29.94,29.85,0,0,0,0.00
2014-1-1,0.0,0.0,0.0,0.0,0.0,0.0,0,0,100,29.85,29.71,0,0,0,0.00
2014-1-2,0.0,0.0,0.0,0.0,0.0,0.0,0,0,100,29.85,29.74,0,0,0,0.00